This is the latest recevied weather packets stored in our database for station/object E23JWE-1. If no packets are shown the sender has not sent any weather packets the latest 10 day(s).
| Time | Temp. | Humidity | Pressure | Rain* | Wind** | Luminosity | Snow |
|---|---|---|---|---|---|---|---|
| 1777177943 | 33.33° C | 87% | 1010 hPa | - | - | 24 W/m² | - |
| 1777176118 | 33.33° C | 87% | 1010 hPa | - | - | 23 W/m² | - |
| 1777174292 | 33.33° C | 89% | 1010 hPa | - | - | 23 W/m² | - |
| 1777172467 | 32.78° C | 90% | 1010 hPa | - | - | 24 W/m² | - |
| 1777170641 | 32.78° C | 91% | 1010 hPa | - | - | 24 W/m² | - |
| 1777168816 | 32.78° C | 91% | 1010 hPa | - | - | 25 W/m² | - |
| 1777166990 | 32.22° C | 94% | 1010 hPa | - | - | 25 W/m² | - |
| 1777165165 | 32.22° C | 94% | 1010 hPa | - | - | 18 W/m² | - |
| 1777163339 | 32.22° C | 93% | 1009 hPa | - | - | 13 W/m² | - |
| 1777161514 | 32.22° C | 91% | 1009 hPa | - | - | 7 W/m² | - |
| 1777159688 | 32.22° C | 91% | 1008 hPa | - | - | 2 W/m² | - |
| 1777157863 | 32.78° C | 90% | 1008 hPa | - | - | 0 W/m² | - |
| 1777156037 | 32.78° C | 89% | 1008 hPa | - | - | 0 W/m² | - |
| 1777154211 | 32.78° C | 88% | 1008 hPa | - | - | 0 W/m² | - |
| 1777152385 | 32.22° C | 87% | 1008 hPa | - | - | 0 W/m² | - |
| 1777150560 | 32.22° C | 85% | 1008 hPa | - | - | 0 W/m² | - |
| 1777148734 | 32.22° C | 86% | 1008 hPa | - | - | 0 W/m² | - |
| 1777146908 | 32.22° C | 88% | 1008 hPa | - | - | 0 W/m² | - |
| 1777145083 | 32.22° C | 86% | 1008 hPa | - | - | 0 W/m² | - |
| 1777143258 | 32.22° C | 87% | 1008 hPa | - | - | 0 W/m² | - |
| 1777141432 | 32.78° C | 83% | 1009 hPa | - | - | 0 W/m² | - |
| 1777139606 | 32.22° C | 84% | 1009 hPa | - | - | 0 W/m² | - |
| 1777137781 | 32.22° C | 85% | 1009 hPa | - | - | 0 W/m² | - |
| 1777135956 | 32.78° C | 81% | 1010 hPa | - | - | 0 W/m² | - |
| 1777134130 | 32.78° C | 80% | 1010 hPa | - | - | 0 W/m² | - |
* Rain since midnight (hover to see other rain measurements)
** Current wind speed in m/s (hover to see current wind gust speed)